Retour au catalogue

SL-12 R/B(2)

ActifGEO
NORAD 21129·ROCKET BODY·🇷🇺 Russia

Lancé Feb 14, 1991 depuis Baikonur Cosmodrome

Loading…

TLE

FraisSource: Space-Track

Époque: Sep 14, 2026, 14:24 UTC

1 21129U 91010F   26257.60058111 -.00000371  00000-0  00000+0 0  9991
2 21129  13.0927 341.7314 0018564 235.3889 120.9593  1.00132725130569

Suivez SL-12 R/B(2) en temps réel avec AllMySat

Download on the App Store